Cloud_Cover
96 100 100 91 4 4 0 0 0 0 0 4 5 5 14 67 3 82 100 70 100 100 100 67 5 5 79 40 73 50 5 0 0 0 0 0 0 0 0 0 0 0 0 0
0 9 74 48 0 10 95 0 0 0 0 0 5 7 95 90 6 21 84 100 100 100 65 53 12 10 70 63 34 5 0 0 0 0 0 0 0 0 0 0 0 0 0 0
0 0 0 0 0 0 27 0 0 0 5 5 5 6 20 96 5 5 54 100 100 100 55 35 4 0 2 33 5 3 0 0 0 0 0 0 0 0 0 0 0 0 0 0
0 0 0 0 0 0 0 0 0 0 5 5 4 0 2 63 5 8 48 28 32 14 10 3 5 4 0 0 0 0 0 0 0 0 4 0 0 0 0 0 0 0 0 0
0 0 0 0 0 0 0 0 0 0 4 80 5 5 5 5 5 5 10 10 5 1 5 5 4 5 5 5 5 0 0 0 0 0 0 1 0 0 0 0 0 0 0 0
2 0 0 0 0 0 0 1 0 0 0 13 56 14 6 12 5 4 5 6 8 5 31 30 5 5 5 4 0 0 0 0 0 0 0 0 0 0 0 0 0 0 0 0
22 1 0 0 0 1 15 8 18 0 0 2 19 45 5 38 40 8 6 93 55 8 78 70 6 5 0 0 0 0 0 0 0 0 0 0 0 0 0 0 0 0 0 0
27 2 0 0 0 0 0 8 0 3 0 0 4 5 2 5 7 6 44 95 19 5 6 4 0 0 0 0 0 0 0 0 0 0 0 0 0 0 0 0 0 0 0 0
77 5 0 95 72 0 6 2 8 2 3 0 1 0 5 0 1 5 5 5 3 0 0 0 0 0 0 0 0 0 0 0 0 0 0 0 0 0 0 0 0 0 0 0
71 12 5 0 11 8 6 5 0 2 0 1 1 0 0 0 0 0 0 0 0 0 0 0 0 0 0 0 0 0 0 0 0 0 0 0 0 0 0 0 0 0 0 0
95 70 4 1 11 76 2 0 30 8 3 0 0 0 0 0 0 0 0 0 0 0 0 0 0 0 0 0 0 0 0 0 0 0 0 0 0 0 0 0 0 0 0 0
65 7 5 1 1 16 12 1 0 41 9 0 0 0 0 0 0 0 0 0 0 0 0 0 0 0 0 0 0 0 0 0 0 0 0 0 0 0 0 0 0 0 0 0
74 17 64 5 1 0 22 52 29 2 0 0 0 0 0 0 0 0 0 0 0 0 0 0 0 0 0 0 0 0 0 0 0 0 0 0 0 0 0 0 0 0 0 0
92 13 5 5 5 4 15 94 5 7 11 2 0 0 0 0 0 0 0 0 0 0 0 0 0 0 0 0 0 0 0 0 0 0 0 0 0 0 0 0 0 0 0 0
14 37 19 97 21 5 5 98 100 68 22 39 0 0 0 0 0 0 0 4 2 0 0 0 0 0 0 0 0 0 0 0 0 0 0 0 0 0 0 0 0 0 0 0
36 5 5 5 5 2 0 59 100 100 100 98 4 0 0 0 0 0 0 45 49 0 0 0 0 0 0 0 0 0 0 0 0 0 0 0 0 0 0 0 0 0 0 0
96 87 5 5 0 28 0 12 98 100 100 100 40 6 0 0 0 0 2 12 38 14 45 0 0 0 0 0 0 0 0 0 0 0 0 0 0 0 0 0 0 0 0 5
76 32 5 5 4 16 39 2 67 93 99 87 88 29 0 0 0 0 0 34 36 11 78 0 0 0 0 0 0 0 0 0 0 0 0 0 0 0 0 0 0 0 4 96
100 100 8 5 53 23 0 17 67 99 91 100 99 70 1 1 0 0 2 0 4 5 7 15 0 1 0 0 0 0 0 0 0 0 0 0 0 0 0 0 0 2 100 100
100 71 5 1 0 20 100 90 49 86 100 100 89 11 38 6 0 0 0 21 11 5 67 52 0 0 0 4 2 0 0 0 0 0 0 0 0 0 0 0 0 11 100 100
85 22 20 63 98 100 99 100 100 60 100 70 36 0 15 99 28 13 1 17 31 54 95 24 4 0 0 60 100 37 0 0 0 0 0 0 0 0 0 0 4 48 100 100
89 57 46 100 100 100 100 50 94 100 89 5 20 3 5 100 94 16 9 52 15 26 67 5 5 1 4 82 100 98 5 0 0 0 0 0 0 0 0 6 20 67 100 100
100 90 100 100 88 100 100 100 100 100 94 94 73 92 10 100 100 25 5 19 37 6 34 22 4 1 47 95 80 43 38 5 5 0 0 0 4 4 5 22 66 100 96 67
55 100 100 100 100 100 100 100 100 53 95 100 100 100 100 100 71 100 6 22 91 96 100 48 2 28 100 100 100 99 47 6 5 5 5 5 5 39 87 77 43 42 93 84
100 100 100 100 100 100 100 100 100 100 100 100 100 100 100 100 100 98 97 100 91 24 4 0 3 75 98 92 88 75 79 91 98 71 65 83 86 95 100 95 83 89 100 75
97 100 100 100 100 100 100 100 100 100 100 100 100 100 100 100 100 100 95 76 6 13 5 22 28 54 100 100 100 76 100 100 93 92 100 100 100 98 100 98 70 21 18 62
100 100 100 100 100 100 100 100 100 100 100 100 100 100 100 100 100 100 99 89 18 87 100 99 85 100 100 100 100 100 100 100 100 86 97 94 97 100 100 100 100 97 39 5